Location: PSU-Greenbush Astrophysical Observatory
(37.5140°N, 94.9880°W)
Time: 12:01:03
(UTC-06:00)

SR - All Passes

Search period start: 21 January 2020 00:00
Search period end: 31 January 2020 00:00
Orbit: 574 x 882 km, 66.7° (Epoch: 20 January)

Date Brightness Start Highest point End Pass type
(mag) Time Alt. Az. Time Alt. Az. Time Alt. Az.
21 Jan - 01:26:52 10° WNW 01:29:02 12° NW 01:31:13 10° NNW night (unlit)
21 Jan - 06:44:19 10° NNE 06:45:59 11° NE 06:47:37 10° ENE visible
21 Jan - 08:23:47 10° NNW 08:29:18 66° ENE 08:34:18 10° SE daylight
21 Jan - 10:07:55 10° WNW 10:10:36 14° WSW 10:13:10 10° SW daylight
21 Jan - 22:50:19 10° SSW 22:56:01 70° ESE 23:01:56 10° NNE night (unlit)
22 Jan - 00:34:25 10° W 00:38:43 21° NW 00:43:04 10° N night (unlit)
22 Jan - 07:34:24 10° N 07:39:25 33° NE 07:44:02 10° ESE daylight
22 Jan - 09:16:42 10° NW 09:21:23 30° WSW 09:25:42 10° SSW daylight
22 Jan - 22:01:23 10° S 22:06:32 35° ESE 22:11:52 10° NE night (unlit)
22 Jan - 23:43:19 10° WSW 23:48:37 36° NW 23:54:03 10° NNE night (unlit)
23 Jan - 06:45:27 10° N 06:49:17 19° NE 06:52:56 10° E visible
23 Jan - 08:26:33 10° NNW 08:31:58 65° WSW 08:36:53 10° SSE daylight
23 Jan - 21:13:33 10° SE 21:17:15 18° ESE 21:21:01 10° ENE night (unlit)
23 Jan - 22:53:00 10° SW 22:58:44 66° WNW 23:04:40 10° NNE night (unlit)
24 Jan - 00:39:32 10° WNW 00:42:01 13° NW 00:44:29 10° NNW night (unlit)
24 Jan - 05:57:51 10° NNE 05:58:57 11° NE 06:00:02 10° NE visible
24 Jan - 07:36:51 10° NNW 07:42:19 62° ENE 07:47:16 10° SE daylight
24 Jan - 09:20:46 10° WNW 09:23:40 15° WSW 09:26:28 10° SW daylight
24 Jan - 22:03:23 10° SSW 22:09:04 66° ESE 22:14:59 10° NNE night (unlit)
24 Jan - 23:47:17 10° W 23:51:42 22° NW 23:56:11 10° N night (unlit)
25 Jan - 06:47:30 10° N 06:52:25 31° NE 06:56:56 10° ESE visible
25 Jan - 08:29:42 10° NW 08:34:27 32° WSW 08:38:49 10° S daylight
25 Jan - 21:14:31 10° S 21:19:37 33° ESE 21:24:51 10° NE night (unlit)
25 Jan - 22:56:15 10° WSW 23:01:38 38° NW 23:07:08 10° NNE night (unlit)
26 Jan - 05:58:37 10° N 06:02:16 18° NE 06:05:44 10° E visible
26 Jan - 07:39:35 10° NNW 07:45:00 70° WSW 07:49:55 10° SSE daylight
26 Jan - 20:26:50 10° SE 20:30:20 17° ESE 20:33:53 10° ENE night (unlit)
26 Jan - 22:06:00 10° SW 22:11:47 70° WNW 22:17:44 10° NNE night (unlit)
26 Jan - 23:52:15 10° WNW 23:54:59 13° NW 23:57:43 10° NNW night (unlit)
27 Jan - 06:49:56 10° NNW 06:55:20 57° ENE 07:00:14 10° SE visible
27 Jan - 08:33:37 10° WNW 08:36:44 16° WSW 08:39:43 10° SW daylight
27 Jan - 21:16:27 10° SSW 21:22:08 62° ESE 21:28:00 10° NE night (unlit)
27 Jan - 23:00:09 10° W 23:04:42 23° NW 23:09:18 10° N night (unlit)
28 Jan - 06:00:37 10° N 06:05:24 30° NE 06:09:50 10° ESE visible
28 Jan - 07:42:41 10° NW 07:47:30 34° WSW 07:51:55 10° S daylight
28 Jan - 20:27:40 10° SSE 20:32:41 31° ESE 20:37:50 10° NE night (unlit)
28 Jan - 22:09:12 10° SW 22:14:40 40° NW 22:20:13 10° NNE night (unlit)
29 Jan - 05:11:48 10° N 05:15:15 17° NE 05:18:32 10° E visible
29 Jan - 06:52:38 10° NNW 06:58:02 74° WSW 07:02:56 10° SSE visible
29 Jan - 19:40:08 10° SE 19:43:25 16° ESE 19:46:44 10° ENE visible
29 Jan - 21:19:01 10° SSW 21:24:49 74° WNW 21:30:47 10° NNE night (unlit)
29 Jan - 23:04:59 10° WNW 23:07:57 14° NW 23:10:57 10° NNW night (unlit)
30 Jan - 06:02:59 10° NNW 06:08:21 54° ENE 06:13:12 10° SE visible
30 Jan - 07:46:30 10° WNW 07:49:49 17° WSW 07:52:57 10° SW daylight
30 Jan - 20:29:31 10° S 20:35:11 59° ESE 20:41:01 10° NE visible
30 Jan - 22:13:02 10° WSW 22:17:42 24° NW 22:22:25 10° N night (unlit)
